When you browse on this site, cookies collect data to enhance your experience and personalize the content and advertising you see.
Visit our Privacy Policy to learn more. By continuing to use the site, you agree to this use of cookies and data.

Stündliche Wetter Korfu

Heute, 22 September, Dienstag

Zeit Temperatur Niederschläge Wind Luftdruck Luftfeuchtigkeit
00:00 +24°C° 0 mm 3 m/S 759 mmHg 77%
01:00 +22°C° 0 mm 3 m/S 759 mmHg 79%
02:00 +22°C° 0 mm 3 m/S 759 mmHg 79%
03:00 +22°C° 0 mm 3 m/S 759 mmHg 80%
04:00 +22°C° 0 mm 4 m/S 758 mmHg 81%
05:00 +23°C° 0 mm 4 m/S 759 mmHg 77%
06:00 +23°C° 0 mm 4 m/S 759 mmHg 74%
07:00 +25°C° 0 mm 4 m/S 759 mmHg 71%
08:00 +26°C° 0 mm 5 m/S 759 mmHg 67%
09:00 +27°C° 0 mm 5 m/S 759 mmHg 64%
10:00 +28°C° 0 mm 5 m/S 759 mmHg 60%
11:00 +28°C° 0 mm 5 m/S 759 mmHg 59%
12:00 +28°C° 0 mm 5 m/S 759 mmHg 58%
13:00 +28°C° 0 mm 5 m/S 759 mmHg 57%
14:00 +28°C° 0 mm 5 m/S 758 mmHg 59%
15:00 +28°C° 0 mm 5 m/S 758 mmHg 60%
16:00 +27°C° 0 mm 5 m/S 758 mmHg 62%
17:00 +26°C° 0 mm 5 m/S 758 mmHg 66%
18:00 +26°C° 0 mm 5 m/S 758 mmHg 71%
19:00 +25°C° 0 mm 5 m/S 758 mmHg 75%
20:00 +25°C° 0.2 mm 5 m/S 758 mmHg 75%
21:00 +23°C° 0.2 mm 5 m/S 758 mmHg 75%
22:00 +23°C° 0.2 mm 5 m/S 759 mmHg 74%
23:00 +23°C° 0.5 mm 5 m/S 758 mmHg 76%

Morgen, 23 September, Mittwoch

Zeit Temperatur Niederschläge Wind Luftdruck Luftfeuchtigkeit
00:00 +23°C° 0.5 mm 5 m/S 758 mmHg 77%
01:00 +23°C° 0.5 mm 5 m/S 758 mmHg 79%
02:00 +23°C° 0.2 mm 5 m/S 758 mmHg 79%
03:00 +23°C° 0.2 mm 5 m/S 758 mmHg 79%
04:00 +22°C° 0.2 mm 5 m/S 758 mmHg 79%
05:00 +23°C° 0.3 mm 6 m/S 758 mmHg 78%
06:00 +23°C° 0.3 mm 6 m/S 758 mmHg 76%
07:00 +24°C° 0.3 mm 6 m/S 758 mmHg 74%
08:00 +26°C° 0.2 mm 7 m/S 758 mmHg 71%
09:00 +27°C° 0.2 mm 7 m/S 758 mmHg 67%
10:00 +28°C° 0.2 mm 7 m/S 758 mmHg 64%
11:00 +28°C° 0.8 mm 7 m/S 757 mmHg 64%
12:00 +28°C° 0.8 mm 6 m/S 757 mmHg 64%
13:00 +28°C° 0.8 mm 6 m/S 757 mmHg 63%
14:00 +28°C° 1 mm 6 m/S 757 mmHg 65%
15:00 +27°C° 1 mm 5 m/S 756 mmHg 68%
16:00 +27°C° 1 mm 5 m/S 756 mmHg 70%
17:00 +26°C° 0.4 mm 5 m/S 756 mmHg 74%
18:00 +26°C° 0.4 mm 4 m/S 756 mmHg 79%
19:00 +25°C° 0.4 mm 4 m/S 757 mmHg 84%
20:00 +25°C° 0.5 mm 4 m/S 757 mmHg 84%
21:00 +23°C° 0.5 mm 4 m/S 757 mmHg 85%
22:00 +23°C° 0.5 mm 4 m/S 757 mmHg 85%
23:00 +23°C° 1.3 mm 4 m/S 756 mmHg 85%

übermorgen, 24 September, Donnerstag

Zeit Temperatur Niederschläge Wind Luftdruck Luftfeuchtigkeit
00:00 +23°C° 1.3 mm 4 m/S 756 mmHg 86%
01:00 +22°C° 1.3 mm 4 m/S 756 mmHg 86%
02:00 +22°C° 0.6 mm 4 m/S 756 mmHg 86%
03:00 +22°C° 0.6 mm 4 m/S 756 mmHg 86%
04:00 +22°C° 0.6 mm 4 m/S 755 mmHg 86%
05:00 +22°C° 1.4 mm 4 m/S 755 mmHg 85%
06:00 +23°C° 1.4 mm 4 m/S 756 mmHg 84%
07:00 +24°C° 1.4 mm 3 m/S 756 mmHg 83%
08:00 +25°C° 0.8 mm 3 m/S 756 mmHg 77%
09:00 +26°C° 0.8 mm 2 m/S 756 mmHg 71%
10:00 +27°C° 0.8 mm 2 m/S 756 mmHg 65%
11:00 +28°C° 0.1 mm 2 m/S 756 mmHg 63%
12:00 +28°C° 0.1 mm 2 m/S 756 mmHg 60%
13:00 +28°C° 0.1 mm 1 m/S 756 mmHg 57%
14:00 +28°C° 0 mm 1 m/S 756 mmHg 58%
15:00 +28°C° 0 mm 1 m/S 756 mmHg 58%
16:00 +27°C° 0 mm 1 m/S 756 mmHg 59%
17:00 +27°C° 0 mm 1 m/S 756 mmHg 64%
18:00 +26°C° 0 mm 1 m/S 756 mmHg 69%
19:00 +25°C° 0 mm 2 m/S 756 mmHg 74%
20:00 +25°C° 0 mm 1 m/S 756 mmHg 73%
21:00 +24°C° 0 mm 1 m/S 757 mmHg 73%
22:00 +24°C° 0 mm 1 m/S 757 mmHg 72%
23:00 +24°C° 0 mm 1 m/S 757 mmHg 71%

25 September, Freitag

Zeit Temperatur Niederschläge Wind Luftdruck Luftfeuchtigkeit
00:00 +24°C° 0 mm 1 m/S 756 mmHg 71%
01:00 +24°C° 0 mm 1 m/S 756 mmHg 70%
02:00 +23°C° 0 mm 2 m/S 756 mmHg 69%
03:00 +23°C° 0 mm 2 m/S 755 mmHg 69%
04:00 +23°C° 0 mm 2 m/S 755 mmHg 69%
05:00 +22°C° 0 mm 3 m/S 755 mmHg 67%
06:00 +24°C° 0 mm 3 m/S 755 mmHg 66%
07:00 +23°C° 0 mm 4 m/S 755 mmHg 64%
08:00 +25°C° 0 mm 4 m/S 755 mmHg 63%
09:00 +26°C° 0 mm 4 m/S 755 mmHg 61%
10:00 +27°C° 0 mm 5 m/S 755 mmHg 59%
11:00 +27°C° 0 mm 5 m/S 754 mmHg 64%
12:00 +26°C° 0 mm 5 m/S 754 mmHg 68%
13:00 +26°C° 0 mm 5 m/S 753 mmHg 72%
14:00 +26°C° 0 mm 6 m/S 753 mmHg 72%
15:00 +27°C° 0 mm 6 m/S 752 mmHg 72%
16:00 +27°C° 0 mm 7 m/S 752 mmHg 72%
17:00 +26°C° 0 mm 7 m/S 751 mmHg 73%
18:00 +26°C° 0 mm 7 m/S 751 mmHg 75%
19:00 +24°C° 0 mm 8 m/S 751 mmHg 76%
20:00 +24°C° 0.1 mm 7 m/S 750 mmHg 77%
21:00 +24°C° 0.1 mm 7 m/S 750 mmHg 77%
22:00 +23°C° 0.1 mm 7 m/S 750 mmHg 77%
23:00 +23°C° 2.6 mm 7 m/S 749 mmHg 81%

26 September, Samstag

Zeit Temperatur Niederschläge Wind Luftdruck Luftfeuchtigkeit
00:00 +23°C° 2.6 mm 8 m/S 749 mmHg 85%
01:00 +22°C° 2.6 mm 8 m/S 748 mmHg 89%
02:00 +22°C° 2.6 mm 8 m/S 747 mmHg 89%
03:00 +22°C° 2.6 mm 7 m/S 747 mmHg 90%
04:00 +22°C° 2.6 mm 7 m/S 746 mmHg 91%
05:00 +22°C° 2.6 mm 7 m/S 746 mmHg 91%
06:00 +21°C° 2.6 mm 6 m/S 746 mmHg 91%
07:00 +21°C° 2.6 mm 6 m/S 745 mmHg 90%
08:00 +20°C° 2.8 mm 7 m/S 745 mmHg 90%
09:00 +20°C° 2.8 mm 8 m/S 745 mmHg 89%
10:00 +19°C° 2.8 mm 9 m/S 745 mmHg 88%
11:00 +19°C° 0.9 mm 9 m/S 746 mmHg 82%
12:00 +19°C° 0.9 mm 9 m/S 746 mmHg 75%
13:00 +19°C° 0.9 mm 10 m/S 746 mmHg 68%
14:00 +19°C° 1 mm 10 m/S 746 mmHg 68%
15:00 +19°C° 1 mm 11 m/S 746 mmHg 68%
16:00 +18°C° 1 mm 11 m/S 747 mmHg 68%
17:00 +18°C° 0.9 mm 11 m/S 747 mmHg 68%
18:00 +18°C° 0.9 mm 11 m/S 747 mmHg 68%
19:00 +18°C° 0.9 mm 10 m/S 748 mmHg 67%
20:00 +17°C° 0.7 mm 9 m/S 748 mmHg 69%
21:00 +17°C° 0.7 mm 8 m/S 748 mmHg 70%
22:00 +17°C° 0.7 mm 6 m/S 749 mmHg 71%
23:00 +17°C° 0.6 mm 6 m/S 749 mmHg 71%

27 September, Sonntag

Zeit Temperatur Niederschläge Wind Luftdruck Luftfeuchtigkeit
00:00 +17°C° 0.6 mm 6 m/S 749 mmHg 70%
01:00 +17°C° 0.6 mm 6 m/S 749 mmHg 69%
02:00 +17°C° 0.8 mm 6 m/S 749 mmHg 71%
03:00 +16°C° 0.8 mm 6 m/S 749 mmHg 72%
04:00 +16°C° 0.8 mm 6 m/S 749 mmHg 74%
05:00 +17°C° 0.9 mm 6 m/S 750 mmHg 73%
06:00 +17°C° 0.9 mm 6 m/S 750 mmHg 72%
07:00 +17°C° 0.9 mm 6 m/S 750 mmHg 71%
08:00 +19°C° 0.7 mm 5 m/S 751 mmHg 69%
09:00 +19°C° 0.7 mm 5 m/S 751 mmHg 67%
10:00 +20°C° 0.7 mm 4 m/S 752 mmHg 65%
11:00 +20°C° 0.2 mm 4 m/S 752 mmHg 62%
12:00 +21°C° 0.2 mm 3 m/S 752 mmHg 59%
13:00 +21°C° 0.2 mm 3 m/S 753 mmHg 56%
14:00 +22°C° 0 mm 3 m/S 753 mmHg 55%
15:00 +22°C° 0 mm 3 m/S 753 mmHg 54%
16:00 +22°C° 0 mm 4 m/S 753 mmHg 53%
17:00 +21°C° 0.6 mm 5 m/S 753 mmHg 61%
18:00 +20°C° 0.6 mm 5 m/S 754 mmHg 69%
19:00 +19°C° 0.6 mm 6 m/S 754 mmHg 77%
20:00 +18°C° 1.3 mm 7 m/S 754 mmHg 78%
21:00 +18°C° 1.3 mm 7 m/S 755 mmHg 78%
22:00 +20°C° 1.3 mm 8 m/S 755 mmHg 78%
23:00 +20°C° 1.2 mm 7 m/S 755 mmHg 79%
Mehr zeigen